Time,TemperatureF,DewpointF,PressureIn,WindDirection,WindDirectionDegrees,WindSpeedMPH,WindSpeedGustMPH,Humidity,HourlyPrecipIn,Conditions,Clouds,dailyrainin,SoftwareType,DateUTC
2013-01-17 00:02:00,30.0,29.5,30.50,NW,311,0.0,0.0,98,0.00,RA,OVC,0.00,WeatherDisplay:10.37,2013-01-17 08:02:00,
2013-01-17 00:07:00,30.0,29.8,30.50,NW,311,0.0,0.0,99,0.00,RA,OVC,0.00,WeatherDisplay:10.37,2013-01-17 08:07:00,
2013-01-17 00:12:00,30.0,29.7,30.50,NW,310,1.0,0.0,99,0.00,,OVC,0.00,WeatherDisplay:10.37,2013-01-17 08:12:00,
2013-01-17 00:17:00,29.9,29.7,30.49,WNW,292,1.0,0.0,99,0.00,,OVC,0.00,WeatherDisplay:10.37,2013-01-17 08:17:00,
2013-01-17 00:22:00,29.9,29.7,30.50,WNW,288,0.0,0.0,99,0.00,,OVC,0.00,WeatherDisplay:10.37,2013-01-17 08:22:00,
2013-01-17 00:27:00,29.9,29.7,30.50,WNW,288,0.0,0.0,99,0.00,,OVC,0.00,WeatherDisplay:10.37,2013-01-17 08:27:00,
2013-01-17 00:32:00,29.9,29.7,30.50,NNW,329,1.0,0.0,99,0.00,,OVC,0.00,WeatherDisplay:10.37,2013-01-17 08:32:00,
2013-01-17 00:37:00,29.8,29.6,30.50,North,10,0.0,0.0,99,0.00,,OVC,0.00,WeatherDisplay:10.37,2013-01-17 08:37:00,
2013-01-17 00:42:00,29.7,29.2,30.49,North,5,0.0,0.0,98,0.00,,OVC,0.00,WeatherDisplay:10.37,2013-01-17 08:42:00,
2013-01-17 00:52:00,29.5,29.0,30.48,North,5,0.0,0.0,98,0.00,,OVC,0.00,WeatherDisplay:10.37,2013-01-17 08:52:00,
2013-01-17 00:57:00,29.4,28.9,30.49,North,5,0.0,0.0,98,0.00,,OVC,0.00,WeatherDisplay:10.37,2013-01-17 08:57:00,
2013-01-17 01:02:00,29.3,28.8,30.48,North,5,0.0,0.0,98,0.00,,OVC,0.00,WeatherDisplay:10.37,2013-01-17 09:02:00,
2013-01-17 01:07:00,29.2,28.7,30.48,North,5,0.0,0.0,98,0.00,,OVC,0.00,WeatherDisplay:10.37,2013-01-17 09:07:00,
2013-01-17 01:12:00,29.1,28.6,30.48,North,5,0.0,0.0,98,0.00,,OVC,0.00,WeatherDisplay:10.37,2013-01-17 09:12:00,
2013-01-17 01:17:00,29.0,28.5,30.49,North,5,0.0,0.0,98,0.00,,OVC,0.00,WeatherDisplay:10.37,2013-01-17 09:17:00,
2013-01-17 01:22:00,28.9,28.4,30.49,North,5,0.0,0.0,98,0.00,,OVC,0.00,WeatherDisplay:10.37,2013-01-17 09:22:00,
2013-01-17 01:32:00,28.9,28.4,30.49,North,11,0.0,0.0,98,0.00,,OVC,0.00,WeatherDisplay:10.37,2013-01-17 09:32:00,
2013-01-17 01:37:00,28.9,28.4,30.49,North,358,1.0,0.0,98,0.00,,OVC,0.00,WeatherDisplay:10.37,2013-01-17 09:37:00,
2013-01-17 01:42:00,28.9,28.4,30.49,NNW,330,0.0,0.0,98,0.00,,OVC,0.00,WeatherDisplay:10.37,2013-01-17 09:42:00,
2013-01-17 01:47:00,28.8,28.3,30.49,West,260,2.0,0.0,98,0.00,,OVC,0.00,WeatherDisplay:10.37,2013-01-17 09:47:00,
2013-01-17 01:52:00,28.7,28.2,30.49,SW,231,2.0,0.0,98,0.00,,OVC,0.00,WeatherDisplay:10.37,2013-01-17 09:52:00,
2013-01-17 01:57:00,28.6,28.1,30.49,SW,227,2.0,0.0,98,0.00,,OVC,0.00,WeatherDisplay:10.37,2013-01-17 09:57:00,
2013-01-17 02:02:00,28.6,28.1,30.49,SSW,212,2.0,0.0,98,0.00,,OVC,0.00,WeatherDisplay:10.37,2013-01-17 10:02:00,
2013-01-17 02:07:00,28.7,28.2,30.49,SSW,212,2.0,0.0,98,0.00,,OVC,0.00,WeatherDisplay:10.37,2013-01-17 10:07:00,
2013-01-17 02:12:00,28.7,28.2,30.49,SW,215,0.0,0.0,98,0.00,,OVC,0.00,WeatherDisplay:10.37,2013-01-17 10:12:00,
2013-01-17 02:17:00,28.6,28.1,30.49,SSW,209,0.0,0.0,98,0.00,,OVC,0.00,WeatherDisplay:10.37,2013-01-17 10:17:00,
2013-01-17 02:22:00,28.6,28.1,30.49,SSW,209,0.0,0.0,98,0.00,,OVC,0.00,WeatherDisplay:10.37,2013-01-17 10:22:00,
2013-01-17 02:27:00,28.5,28.0,30.48,SSW,200,0.0,0.0,98,0.00,,OVC,0.00,WeatherDisplay:10.37,2013-01-17 10:27:00,
2013-01-17 02:32:00,28.3,27.8,30.48,South,186,0.0,0.0,98,0.00,,OVC,0.00,WeatherDisplay:10.37,2013-01-17 10:32:00,
2013-01-17 02:37:00,28.1,27.6,30.48,South,180,0.0,0.0,98,0.00,,OVC,0.00,WeatherDisplay:10.37,2013-01-17 10:37:00,
2013-01-17 02:42:00,28.0,27.5,30.48,South,180,0.0,0.0,98,0.00,,OVC,0.00,WeatherDisplay:10.37,2013-01-17 10:42:00,
2013-01-17 02:47:00,27.9,27.4,30.48,South,180,0.0,0.0,98,0.00,,OVC,0.00,WeatherDisplay:10.37,2013-01-17 10:47:00,
2013-01-17 02:52:00,27.8,27.3,30.48,South,182,0.0,0.0,98,0.00,,OVC,0.00,WeatherDisplay:10.37,2013-01-17 10:52:00,
2013-01-17 02:57:00,27.8,27.3,30.47,South,185,0.0,0.0,98,0.00,,OVC,0.00,WeatherDisplay:10.37,2013-01-17 10:57:00,
2013-01-17 03:02:00,27.8,27.3,30.47,South,186,0.0,0.0,98,0.00,,OVC,0.00,WeatherDisplay:10.37,2013-01-17 11:02:00,
2013-01-17 03:07:00,27.8,27.3,30.47,South,186,0.0,0.0,98,0.00,,OVC,0.00,WeatherDisplay:10.37,2013-01-17 11:07:00,
2013-01-17 03:12:00,27.8,27.3,30.47,South,186,0.0,0.0,98,0.00,,OVC,0.00,WeatherDisplay:10.37,2013-01-17 11:12:00,
2013-01-17 03:17:00,27.8,27.3,30.47,South,175,0.0,0.0,98,0.00,,OVC,0.00,WeatherDisplay:10.37,2013-01-17 11:17:00,
2013-01-17 03:22:00,27.8,27.3,30.46,SE,138,0.0,0.0,98,0.00,,OVC,0.00,WeatherDisplay:10.37,2013-01-17 11:22:00,
2013-01-17 03:27:00,27.8,27.3,30.46,ESE,116,0.0,0.0,98,0.00,,OVC,0.00,WeatherDisplay:10.37,2013-01-17 11:27:00,
2013-01-17 03:32:00,27.9,27.4,30.46,ESE,121,0.0,0.0,98,0.00,,OVC,0.00,WeatherDisplay:10.37,2013-01-17 11:32:00,
2013-01-17 03:37:00,27.9,27.4,30.46,ESE,121,0.0,0.0,98,0.00,,OVC,0.00,WeatherDisplay:10.37,2013-01-17 11:37:00,
2013-01-17 03:42:00,27.8,27.3,30.46,ESE,121,0.0,0.0,98,0.00,,OVC,0.00,WeatherDisplay:10.37,2013-01-17 11:42:00,
2013-01-17 03:47:00,27.7,27.2,30.46,ESE,121,0.0,0.0,98,0.00,,OVC,0.00,WeatherDisplay:10.37,2013-01-17 11:47:00,
2013-01-17 03:52:00,27.6,27.1,30.45,ESE,121,0.0,0.0,98,0.00,,OVC,0.00,WeatherDisplay:10.37,2013-01-17 11:52:00,
2013-01-17 03:57:00,27.6,27.1,30.45,SE,140,0.0,0.0,98,0.00,,OVC,0.00,WeatherDisplay:10.37,2013-01-17 11:57:00,
2013-01-17 04:02:00,27.6,27.2,30.45,South,172,0.0,0.0,98,0.00,,OVC,0.00,WeatherDisplay:10.37,2013-01-17 12:02:00,
2013-01-17 04:07:00,27.6,27.1,30.45,South,174,0.0,0.0,98,0.00,,OVC,0.00,WeatherDisplay:10.37,2013-01-17 12:07:00,
2013-01-17 04:12:00,27.6,27.1,30.45,South,174,0.0,0.0,98,0.00,,OVC,0.00,WeatherDisplay:10.37,2013-01-17 12:12:00,
2013-01-17 04:17:00,27.5,27.0,30.44,South,174,0.0,0.0,98,0.00,,OVC,0.00,WeatherDisplay:10.37,2013-01-17 12:17:00,
2013-01-17 04:22:00,27.4,26.9,30.44,South,174,0.0,0.0,98,0.00,,OVC,0.00,WeatherDisplay:10.37,2013-01-17 12:22:00,
2013-01-17 04:27:00,27.3,26.8,30.44,South,174,0.0,0.0,98,0.00,,OVC,0.00,WeatherDisplay:10.37,2013-01-17 12:27:00,
2013-01-17 04:32:00,27.3,26.8,30.45,South,174,0.0,0.0,98,0.00,,OVC,0.00,WeatherDisplay:10.37,2013-01-17 12:32:00,
2013-01-17 04:37:00,27.2,26.7,30.45,South,174,0.0,0.0,98,0.00,,OVC,0.00,WeatherDisplay:10.37,2013-01-17 12:37:00,
2013-01-17 04:42:00,27.2,26.7,30.44,South,174,0.0,0.0,98,0.00,,OVC,0.00,WeatherDisplay:10.37,2013-01-17 12:42:00,
2013-01-17 04:47:00,27.1,26.6,30.44,South,174,0.0,0.0,98,0.00,,OVC,0.00,WeatherDisplay:10.37,2013-01-17 12:47:00,
2013-01-17 04:52:00,27.0,26.5,30.44,South,174,0.0,0.0,98,0.00,,OVC,0.00,WeatherDisplay:10.37,2013-01-17 12:52:00,
2013-01-17 04:57:00,27.0,26.5,30.44,South,174,0.0,0.0,98,0.00,,OVC,0.00,WeatherDisplay:10.37,2013-01-17 12:57:00,
2013-01-17 05:02:00,27.0,26.5,30.44,South,174,0.0,0.0,98,0.00,,OVC,0.00,WeatherDisplay:10.37,2013-01-17 13:02:00,
2013-01-17 05:07:00,27.0,26.5,30.43,South,174,0.0,0.0,98,0.00,,OVC,0.00,WeatherDisplay:10.37,2013-01-17 13:07:00,
2013-01-17 05:12:00,27.0,26.5,30.43,South,174,0.0,0.0,98,0.00,,OVC,0.00,WeatherDisplay:10.37,2013-01-17 13:12:00,
2013-01-17 05:17:00,26.9,26.4,30.43,South,174,0.0,0.0,98,0.00,,OVC,0.00,WeatherDisplay:10.37,2013-01-17 13:17:00,
2013-01-17 05:22:00,26.9,26.4,30.43,South,174,0.0,0.0,98,0.00,,OVC,0.00,WeatherDisplay:10.37,2013-01-17 13:22:00,
2013-01-17 05:27:00,26.8,26.3,30.43,SSE,160,0.0,0.0,98,0.00,,OVC,0.00,WeatherDisplay:10.37,2013-01-17 13:27:00,
2013-01-17 05:32:00,26.7,26.2,30.43,SE,143,0.0,0.0,98,0.00,,OVC,0.00,WeatherDisplay:10.37,2013-01-17 13:32:00,
2013-01-17 05:37:00,26.6,26.1,30.43,SE,143,0.0,0.0,98,0.00,,OVC,0.00,WeatherDisplay:10.37,2013-01-17 13:37:00,
2013-01-17 05:42:00,26.5,26.0,30.43,SE,143,0.0,0.0,98,0.00,,OVC,0.00,WeatherDisplay:10.37,2013-01-17 13:42:00,
2013-01-17 05:47:00,26.5,26.0,30.42,SE,143,0.0,0.0,98,0.00,,OVC,0.00,WeatherDisplay:10.37,2013-01-17 13:47:00,
2013-01-17 05:52:00,26.7,26.2,30.42,SE,143,0.0,0.0,98,0.00,,OVC,0.00,WeatherDisplay:10.37,2013-01-17 13:52:00,
2013-01-17 05:57:00,26.8,26.3,30.42,SE,143,0.0,0.0,98,0.00,,OVC,0.00,WeatherDisplay:10.37,2013-01-17 13:57:00,
2013-01-17 06:02:00,26.8,26.3,30.42,SE,143,0.0,0.0,98,0.00,,OVC,0.00,WeatherDisplay:10.37,2013-01-17 14:02:00,
2013-01-17 06:07:00,26.8,26.3,30.42,SE,143,0.0,0.0,98,0.00,,OVC,0.00,WeatherDisplay:10.37,2013-01-17 14:07:00,
2013-01-17 06:12:00,27.2,26.7,30.42,SE,143,0.0,0.0,98,0.00,,OVC,0.00,WeatherDisplay:10.37,2013-01-17 14:12:00,
2013-01-17 06:17:00,27.6,27.1,30.42,SE,143,0.0,0.0,98,0.00,,OVC,0.00,WeatherDisplay:10.37,2013-01-17 14:17:00,
2013-01-17 06:22:00,27.7,27.5,30.42,SE,143,0.0,0.0,99,0.00,,OVC,0.00,WeatherDisplay:10.37,2013-01-17 14:22:00,
2013-01-17 06:27:00,27.7,27.5,30.42,SE,143,0.0,0.0,99,0.00,,OVC,0.00,WeatherDisplay:10.37,2013-01-17 14:27:00,
2013-01-17 06:32:00,27.6,27.4,30.42,SE,129,0.0,0.0,99,0.00,,OVC,0.00,WeatherDisplay:10.37,2013-01-17 14:32:00,
2013-01-17 06:37:00,27.4,26.9,30.42,ESE,105,0.0,0.0,98,0.00,,OVC,0.00,WeatherDisplay:10.37,2013-01-17 14:37:00,
2013-01-17 06:42:00,27.4,26.9,30.42,ESE,105,0.0,0.0,98,0.00,,OVC,0.00,WeatherDisplay:10.37,2013-01-17 14:42:00,
2013-01-17 06:47:00,27.3,26.8,30.42,ESE,105,0.0,0.0,98,0.00,,OVC,0.00,WeatherDisplay:10.37,2013-01-17 14:47:00,
2013-01-17 06:52:00,27.8,27.5,30.42,SE,126,1.0,0.0,99,0.00,,OVC,0.00,WeatherDisplay:10.37,2013-01-17 14:52:00,
2013-01-17 06:57:00,27.9,27.4,30.42,SSE,159,0.0,0.0,98,0.00,,OVC,0.00,WeatherDisplay:10.37,2013-01-17 14:57:00,
2013-01-17 07:02:00,27.7,27.5,30.42,ESE,105,0.0,0.0,99,0.00,,OVC,0.00,WeatherDisplay:10.37,2013-01-17 15:02:00,
2013-01-17 07:07:00,27.5,27.0,30.42,NE,55,0.0,0.0,98,0.00,,OVC,0.00,WeatherDisplay:10.37,2013-01-17 15:07:00,
2013-01-17 07:12:00,27.3,26.8,30.42,NE,51,0.0,0.0,98,0.00,,OVC,0.00,WeatherDisplay:10.37,2013-01-17 15:12:00,
2013-01-17 07:17:00,27.1,26.7,30.42,NE,51,0.0,0.0,98,0.00,,OVC,0.00,WeatherDisplay:10.37,2013-01-17 15:17:00,
2013-01-17 07:22:00,27.1,26.6,30.41,NE,51,0.0,0.0,98,0.00,CLR,OVC,0.00,WeatherDisplay:10.37,2013-01-17 15:22:00,
2013-01-17 07:27:00,27.1,26.6,30.41,NE,51,0.0,0.0,98,0.00,CLR,OVC,0.00,WeatherDisplay:10.37,2013-01-17 15:27:00,
2013-01-17 07:32:00,27.1,26.6,30.42,NE,51,0.0,0.0,98,0.00,CLR,OVC,0.00,WeatherDisplay:10.37,2013-01-17 15:32:00,
2013-01-17 07:37:00,27.0,26.5,30.41,NE,51,0.0,0.0,98,0.00,CLR,OVC,0.00,WeatherDisplay:10.37,2013-01-17 15:37:00,
2013-01-17 07:42:00,27.1,26.6,30.42,NE,55,0.0,0.0,98,0.00,CLR,OVC,0.00,WeatherDisplay:10.37,2013-01-17 15:42:00,
2013-01-17 07:47:00,27.2,26.7,30.42,ENE,58,0.0,0.0,98,0.00,CLR,OVC,0.00,WeatherDisplay:10.37,2013-01-17 15:47:00,
2013-01-17 07:52:00,27.1,26.6,30.42,ENE,58,0.0,0.0,98,0.00,CLR,OVC,0.00,WeatherDisplay:10.37,2013-01-17 15:52:00,
2013-01-17 07:57:00,27.1,26.6,30.42,ENE,58,0.0,0.0,98,0.00,CLR,OVC,0.00,WeatherDisplay:10.37,2013-01-17 15:57:00,
2013-01-17 08:02:00,27.0,26.5,30.42,ENE,58,0.0,0.0,98,0.00,CLR,OVC,0.00,WeatherDisplay:10.37,2013-01-17 16:02:00,
2013-01-17 08:07:00,27.0,26.5,30.42,ENE,58,0.0,0.0,98,0.00,CLR,OVC,0.00,WeatherDisplay:10.37,2013-01-17 16:07:00,
2013-01-17 08:12:00,26.9,26.4,30.42,ENE,58,0.0,0.0,98,0.00,CLR,OVC,0.00,WeatherDisplay:10.37,2013-01-17 16:12:00,
2013-01-17 08:17:00,26.8,26.3,30.42,ENE,58,0.0,0.0,98,0.00,CLR,OVC,0.00,WeatherDisplay:10.37,2013-01-17 16:17:00,
2013-01-17 08:22:00,26.7,26.2,30.42,ENE,58,0.0,0.0,98,0.00,CLR,OVC,0.00,WeatherDisplay:10.37,2013-01-17 16:22:00,
2013-01-17 08:27:00,26.7,26.2,30.43,ENE,58,0.0,0.0,98,0.00,CLR,OVC,0.00,WeatherDisplay:10.37,2013-01-17 16:27:00,
2013-01-17 08:32:00,26.8,26.3,30.43,ENE,58,0.0,0.0,98,0.00,CLR,OVC,0.00,WeatherDisplay:10.37,2013-01-17 16:32:00,
2013-01-17 08:37:00,26.9,26.4,30.42,ENE,67,0.0,0.0,98,0.00,CLR,OVC,0.00,WeatherDisplay:10.37,2013-01-17 16:37:00,
2013-01-17 08:42:00,27.3,26.8,30.43,East,95,0.0,0.0,98,0.00,CLR,OVC,0.00,WeatherDisplay:10.37,2013-01-17 16:42:00,
2013-01-17 08:47:00,27.6,27.1,30.42,SE,146,0.0,0.0,98,0.00,CLR,OVC,0.00,WeatherDisplay:10.37,2013-01-17 16:47:00,
2013-01-17 08:52:00,27.6,27.4,30.42,SE,146,0.0,0.0,99,0.00,CLR,OVC,0.00,WeatherDisplay:10.37,2013-01-17 16:52:00,
2013-01-17 08:57:00,27.7,27.4,30.43,SE,146,0.0,0.0,99,0.00,CLR,OVC,0.00,WeatherDisplay:10.37,2013-01-17 16:57:00,
2013-01-17 09:02:00,27.7,27.5,30.43,SE,146,0.0,0.0,99,0.00,CLR,OVC,0.00,WeatherDisplay:10.37,2013-01-17 17:02:00,
2013-01-17 09:07:00,27.8,27.6,30.43,SE,146,0.0,0.0,99,0.00,CLR,OVC,0.00,WeatherDisplay:10.37,2013-01-17 17:07:00,
2013-01-17 09:12:00,28.1,27.6,30.43,SE,146,0.0,0.0,98,0.00,CLR,OVC,0.00,WeatherDisplay:10.37,2013-01-17 17:12:00,
2013-01-17 09:17:00,28.3,28.1,30.43,SE,146,0.0,0.0,99,0.00,CLR,OVC,0.00,WeatherDisplay:10.37,2013-01-17 17:17:00,
2013-01-17 09:22:00,28.6,28.4,30.43,SE,143,0.0,0.0,99,0.00,CLR,OVC,0.00,WeatherDisplay:10.37,2013-01-17 17:22:00,
2013-01-17 09:27:00,29.0,28.8,30.43,SE,142,0.0,0.0,99,0.00,CLR,OVC,0.00,WeatherDisplay:10.37,2013-01-17 17:27:00,
2013-01-17 09:32:00,29.4,29.2,30.43,SE,142,0.0,0.0,99,0.00,CLR,OVC,0.00,WeatherDisplay:10.37,2013-01-17 17:32:00,
2013-01-17 09:37:00,29.7,29.5,30.43,SE,146,0.0,0.0,99,0.00,CLR,OVC,0.00,WeatherDisplay:10.37,2013-01-17 17:37:00,
2013-01-17 09:42:00,29.8,29.6,30.43,SSE,156,1.0,0.0,99,0.00,CLR,OVC,0.00,WeatherDisplay:10.37,2013-01-17 17:42:00,
2013-01-17 09:47:00,29.9,29.7,30.43,SSE,156,0.0,0.0,99,0.00,CLR,OVC,0.00,WeatherDisplay:10.37,2013-01-17 17:47:00,
2013-01-17 09:52:00,30.0,29.8,30.43,SSE,156,0.0,0.0,99,0.00,CLR,OVC,0.00,WeatherDisplay:10.37,2013-01-17 17:52:00,
2013-01-17 09:57:00,30.2,30.0,30.43,SSE,158,1.0,0.0,99,0.00,CLR,OVC,0.00,WeatherDisplay:10.37,2013-01-17 17:57:00,
2013-01-17 10:02:00,30.6,30.4,30.43,SSE,164,0.0,0.0,99,0.00,CLR,OVC,0.00,WeatherDisplay:10.37,2013-01-17 18:02:00,
2013-01-17 10:07:00,30.9,30.7,30.43,South,171,0.0,0.0,99,0.00,CLR,OVC,0.00,WeatherDisplay:10.37,2013-01-17 18:07:00,
2013-01-17 10:12:00,31.2,31.0,30.43,South,172,0.0,0.0,99,0.00,CLR,OVC,0.00,WeatherDisplay:10.37,2013-01-17 18:12:00,
2013-01-17 10:17:00,31.5,31.2,30.42,South,172,1.0,0.0,99,0.00,CLR,OVC,0.00,WeatherDisplay:10.37,2013-01-17 18:17:00,
2013-01-17 10:22:00,31.7,31.5,30.43,SSE,154,0.0,0.0,99,0.00,CLR,OVC,0.00,WeatherDisplay:10.37,2013-01-17 18:22:00,
2013-01-17 10:27:00,32.1,31.9,30.43,SSE,148,0.0,0.0,99,0.00,CLR,OVC,0.00,WeatherDisplay:10.37,2013-01-17 18:27:00,
2013-01-17 10:32:00,32.5,32.3,30.43,SE,143,0.0,0.0,99,0.00,CLR,OVC,0.00,WeatherDisplay:10.37,2013-01-17 18:32:00,
2013-01-17 10:37:00,32.8,32.6,30.42,SE,138,0.0,0.0,99,0.00,CLR,OVC,0.00,WeatherDisplay:10.37,2013-01-17 18:37:00,
2013-01-17 10:42:00,33.4,33.2,30.43,SE,132,0.0,0.0,99,0.00,CLR,OVC,0.00,WeatherDisplay:10.37,2013-01-17 18:42:00,
2013-01-17 10:47:00,34.0,33.7,30.42,SSE,150,2.0,0.0,99,0.00,CLR,OVC,0.00,WeatherDisplay:10.37,2013-01-17 18:47:00,
2013-01-17 10:52:00,34.3,34.0,30.42,South,184,1.0,0.0,99,0.00,CLR,OVC,0.00,WeatherDisplay:10.37,2013-01-17 18:52:00,
2013-01-17 10:57:00,34.8,34.6,30.42,SSW,192,0.0,0.0,99,0.00,CLR,OVC,0.00,WeatherDisplay:10.37,2013-01-17 18:57:00,
2013-01-17 11:02:00,35.5,35.3,30.42,South,180,0.0,0.0,99,0.00,CLR,OVC,0.00,WeatherDisplay:10.37,2013-01-17 19:02:00,
2013-01-17 11:07:00,36.1,35.9,30.41,SSE,163,0.0,0.0,99,0.00,CLR,OVC,0.00,WeatherDisplay:10.37,2013-01-17 19:07:00,
2013-01-17 11:12:00,36.8,36.5,30.41,SSE,160,0.0,0.0,99,0.00,CLR,OVC,0.00,WeatherDisplay:10.37,2013-01-17 19:12:00,
2013-01-17 11:17:00,37.4,37.1,30.41,SSE,160,0.0,0.0,99,0.00,CLR,OVC,0.00,WeatherDisplay:10.37,2013-01-17 19:17:00,
2013-01-17 11:22:00,37.8,37.5,30.41,South,188,0.0,0.0,99,0.00,CLR,OVC,0.00,WeatherDisplay:10.37,2013-01-17 19:22:00,
2013-01-17 11:27:00,38.2,38.0,30.41,SSW,199,0.0,0.0,99,0.01,RA,OVC,0.01,WeatherDisplay:10.37,2013-01-17 19:27:00,
2013-01-17 11:32:00,38.7,38.4,30.41,SSW,202,1.0,0.0,99,0.01,RA,OVC,0.01,WeatherDisplay:10.37,2013-01-17 19:32:00,
2013-01-17 11:37:00,39.1,38.8,30.41,SSW,201,0.0,0.0,99,0.00,CLR,OVC,0.01,WeatherDisplay:10.37,2013-01-17 19:37:00,
2013-01-17 11:42:00,39.5,39.2,30.41,SSW,207,0.0,0.0,99,0.00,CLR,OVC,0.01,WeatherDisplay:10.37,2013-01-17 19:42:00,
2013-01-17 11:47:00,39.9,39.6,30.41,SW,216,0.0,0.0,99,0.00,CLR,OVC,0.01,WeatherDisplay:10.37,2013-01-17 19:47:00,
2013-01-17 11:57:00,40.6,40.1,30.39,SSW,193,2.0,0.0,98,0.00,CLR,OVC,0.01,WeatherDisplay:10.37,2013-01-17 19:57:00,
2013-01-17 12:02:00,40.9,40.1,30.39,SSW,198,0.0,0.0,97,0.00,CLR,OVC,0.01,WeatherDisplay:10.37,2013-01-17 20:02:00,
2013-01-17 12:07:00,41.1,40.1,30.39,SSW,202,1.0,0.0,96,0.00,CLR,OVC,0.01,WeatherDisplay:10.37,2013-01-17 20:07:00,
2013-01-17 12:12:00,41.3,40.0,30.39,SSW,202,1.0,0.0,95,0.00,CLR,OVC,0.01,WeatherDisplay:10.37,2013-01-17 20:12:00,
2013-01-17 12:22:00,41.8,39.9,30.38,SSW,212,0.0,0.0,93,0.00,CLR,OVC,0.01,WeatherDisplay:10.37,2013-01-17 20:22:00,
2013-01-17 12:27:00,41.9,39.8,30.38,SW,236,0.0,0.0,92,0.00,CLR,OVC,0.01,WeatherDisplay:10.37,2013-01-17 20:27:00,
2013-01-17 12:32:00,42.0,39.6,30.38,West,263,0.0,0.0,91,0.00,CLR,OVC,0.01,WeatherDisplay:10.37,2013-01-17 20:32:00,
2013-01-17 12:37:00,42.2,39.5,30.38,West,272,1.0,0.0,90,0.00,CLR,OVC,0.01,WeatherDisplay:10.37,2013-01-17 20:37:00,
2013-01-17 12:42:00,42.4,39.6,30.37,SW,235,1.0,0.0,90,0.00,CLR,OVC,0.01,WeatherDisplay:10.37,2013-01-17 20:42:00,
2013-01-17 12:47:00,42.6,39.8,30.37,SW,235,1.0,0.0,90,0.00,CLR,OVC,0.01,WeatherDisplay:10.37,2013-01-17 20:47:00,
2013-01-17 12:52:00,42.9,40.2,30.37,West,267,0.0,0.0,90,0.00,CLR,OVC,0.01,WeatherDisplay:10.37,2013-01-17 20:52:00,
2013-01-17 12:57:00,43.3,40.3,30.36,SSW,199,2.0,0.0,89,0.00,CLR,OVC,0.01,WeatherDisplay:10.37,2013-01-17 20:57:00,
2013-01-17 13:02:00,43.6,40.3,30.36,SSW,209,1.0,0.0,88,0.00,CLR,OVC,0.01,WeatherDisplay:10.37,2013-01-17 21:02:00,
2013-01-17 13:07:00,43.9,40.9,30.36,SW,215,0.0,0.0,89,0.00,CLR,OVC,0.01,WeatherDisplay:10.37,2013-01-17 21:07:00,
2013-01-17 13:12:00,44.2,40.9,30.36,SSW,213,0.0,0.0,88,0.00,CLR,OVC,0.01,WeatherDisplay:10.37,2013-01-17 21:12:00,
2013-01-17 13:17:00,44.6,41.3,30.36,SSW,211,2.0,0.0,88,0.00,CLR,OVC,0.01,WeatherDisplay:10.37,2013-01-17 21:17:00,
2013-01-17 13:22:00,44.6,40.7,30.36,SSW,208,0.0,0.0,86,0.00,CLR,OVC,0.01,WeatherDisplay:10.37,2013-01-17 21:22:00,
2013-01-17 13:27:00,44.9,41.2,30.36,SSW,211,0.0,0.0,87,0.00,CLR,OVC,0.01,WeatherDisplay:10.37,2013-01-17 21:27:00,
2013-01-17 13:32:00,45.0,40.7,30.35,SSW,207,0.0,0.0,85,0.00,CLR,OVC,0.01,WeatherDisplay:10.37,2013-01-17 21:32:00,
2013-01-17 13:42:00,45.1,41.2,30.35,North,356,2.0,0.0,86,0.00,CLR,OVC,0.01,WeatherDisplay:10.37,2013-01-17 21:42:00,
2013-01-17 13:47:00,45.1,41.2,30.35,North,360,2.0,0.0,86,0.00,CLR,OVC,0.01,WeatherDisplay:10.37,2013-01-17 21:47:00,
2013-01-17 13:52:00,44.6,40.1,30.35,North,2,2.0,0.0,84,0.00,CLR,OVC,0.01,WeatherDisplay:10.37,2013-01-17 21:52:00,
2013-01-17 13:57:00,43.6,39.1,30.35,North,10,2.0,0.0,84,0.00,CLR,OVC,0.01,WeatherDisplay:10.37,2013-01-17 21:57:00,
2013-01-17 14:02:00,42.7,38.5,30.34,North,8,1.0,0.0,85,0.00,CLR,OVC,0.01,WeatherDisplay:10.37,2013-01-17 22:02:00,
2013-01-17 14:07:00,42.0,38.4,30.33,North,4,0.0,0.0,87,0.00,CLR,OVC,0.01,WeatherDisplay:10.37,2013-01-17 22:07:00,
2013-01-17 14:12:00,41.4,38.1,30.33,North,5,0.0,0.0,88,0.00,CLR,OVC,0.01,WeatherDisplay:10.37,2013-01-17 22:12:00,
2013-01-17 14:17:00,40.8,37.9,30.33,North,5,0.0,0.0,89,0.00,CLR,OVC,0.01,WeatherDisplay:10.37,2013-01-17 22:17:00,
2013-01-17 14:22:00,40.4,37.4,30.33,North,5,0.0,0.0,89,0.00,CLR,OVC,0.01,WeatherDisplay:10.37,2013-01-17 22:22:00,
2013-01-17 14:27:00,40.1,37.4,30.33,North,5,0.0,0.0,90,0.00,CLR,OVC,0.01,WeatherDisplay:10.37,2013-01-17 22:27:00,
2013-01-17 14:32:00,39.8,37.4,30.32,North,5,0.0,0.0,91,0.00,CLR,OVC,0.01,WeatherDisplay:10.37,2013-01-17 22:32:00,
2013-01-17 14:37:00,39.5,37.4,30.32,NNE,16,0.0,0.0,92,0.00,CLR,OVC,0.01,WeatherDisplay:10.37,2013-01-17 22:37:00,
2013-01-17 14:42:00,39.3,37.4,30.32,ENE,76,0.0,0.0,93,0.00,CLR,OVC,0.01,WeatherDisplay:10.37,2013-01-17 22:42:00,
2013-01-17 14:47:00,39.1,37.2,30.32,SSE,155,0.0,0.0,93,0.00,CLR,OVC,0.01,WeatherDisplay:10.37,2013-01-17 22:47:00,
2013-01-17 14:52:00,38.9,36.8,30.32,SW,215,0.0,0.0,92,0.00,CLR,OVC,0.01,WeatherDisplay:10.37,2013-01-17 22:52:00,
2013-01-17 14:57:00,38.8,37.0,30.32,SSW,207,0.0,0.0,93,0.00,CLR,OVC,0.01,WeatherDisplay:10.37,2013-01-17 22:57:00,
2013-01-17 15:02:00,38.7,36.9,30.32,SSW,200,0.0,0.0,93,0.00,CLR,OVC,0.01,WeatherDisplay:10.37,2013-01-17 23:02:00,
2013-01-17 15:07:00,38.6,36.7,30.32,SSW,196,0.0,0.0,93,0.00,CLR,OVC,0.01,WeatherDisplay:10.37,2013-01-17 23:07:00,
2013-01-17 15:12:00,38.4,36.6,30.31,South,190,0.0,0.0,93,0.00,CLR,OVC,0.01,WeatherDisplay:10.37,2013-01-17 23:12:00,
2013-01-17 15:17:00,38.3,36.4,30.31,South,190,0.0,0.0,93,0.00,CLR,OVC,0.01,WeatherDisplay:10.37,2013-01-17 23:17:00,
2013-01-17 15:22:00,38.1,36.5,30.31,South,190,0.0,0.0,94,0.00,CLR,OVC,0.01,WeatherDisplay:10.37,2013-01-17 23:22:00,
2013-01-17 15:27:00,37.9,36.4,30.32,SSW,194,0.0,0.0,94,0.00,CLR,OVC,0.01,WeatherDisplay:10.37,2013-01-17 23:27:00,
2013-01-17 15:32:00,37.8,36.2,30.32,WSW,245,0.0,0.0,94,0.00,CLR,OVC,0.01,WeatherDisplay:10.37,2013-01-17 23:32:00,
2013-01-17 15:37:00,37.6,36.1,30.32,West,263,0.0,0.0,94,0.00,CLR,OVC,0.01,WeatherDisplay:10.37,2013-01-17 23:37:00,
2013-01-17 15:42:00,37.5,35.9,30.32,West,263,0.0,0.0,94,0.00,CLR,OVC,0.01,WeatherDisplay:10.37,2013-01-17 23:42:00,
2013-01-17 15:47:00,37.4,35.8,30.32,West,263,0.0,0.0,94,0.00,CLR,OVC,0.01,WeatherDisplay:10.37,2013-01-17 23:47:00,
2013-01-17 15:52:00,37.3,36.0,30.32,West,263,0.0,0.0,95,0.00,CLR,OVC,0.01,WeatherDisplay:10.37,2013-01-17 23:52:00,
2013-01-17 15:57:00,37.1,35.5,30.32,West,263,0.0,0.0,94,0.00,CLR,OVC,0.01,WeatherDisplay:10.37,2013-01-17 23:57:00,
2013-01-17 16:02:00,36.9,35.6,30.32,West,263,0.0,0.0,95,0.00,CLR,OVC,0.01,WeatherDisplay:10.37,2013-01-18 00:02:00,
2013-01-17 16:07:00,36.7,35.4,30.32,West,263,0.0,0.0,95,0.00,CLR,OVC,0.01,WeatherDisplay:10.37,2013-01-18 00:07:00,
2013-01-17 16:12:00,36.4,34.8,30.32,West,263,0.0,0.0,94,0.00,CLR,OVC,0.01,WeatherDisplay:10.37,2013-01-18 00:12:00,
2013-01-17 16:17:00,36.2,34.9,30.32,West,263,0.0,0.0,95,0.00,CLR,OVC,0.01,WeatherDisplay:10.37,2013-01-18 00:17:00,
2013-01-17 16:22:00,36.0,34.7,30.32,West,263,0.0,0.0,95,0.00,CLR,OVC,0.01,WeatherDisplay:10.37,2013-01-18 00:22:00,
2013-01-17 16:27:00,35.8,34.6,30.32,West,263,0.0,0.0,95,0.00,CLR,OVC,0.01,WeatherDisplay:10.37,2013-01-18 00:27:00,
2013-01-17 16:32:00,35.6,34.3,30.32,West,263,0.0,0.0,95,0.00,CLR,OVC,0.01,WeatherDisplay:10.37,2013-01-18 00:32:00,
2013-01-17 16:37:00,35.4,34.1,30.32,West,263,0.0,0.0,95,0.00,CLR,OVC,0.01,WeatherDisplay:10.37,2013-01-18 00:37:00,
2013-01-17 16:42:00,35.2,33.9,30.32,West,263,0.0,0.0,95,0.00,CLR,OVC,0.01,WeatherDisplay:10.37,2013-01-18 00:42:00,
2013-01-17 16:47:00,35.0,33.7,30.32,West,263,0.0,0.0,95,0.00,CLR,OVC,0.01,WeatherDisplay:10.37,2013-01-18 00:47:00,
2013-01-17 16:52:00,34.8,33.8,30.31,West,264,0.0,0.0,96,0.00,CLR,OVC,0.01,WeatherDisplay:10.37,2013-01-18 00:52:00,
2013-01-17 16:57:00,34.7,33.7,30.31,West,265,0.0,0.0,96,0.00,CLR,OVC,0.01,WeatherDisplay:10.37,2013-01-18 00:57:00,
2013-01-17 17:02:00,34.6,33.6,30.31,West,265,0.0,0.0,96,0.00,,OVC,0.01,WeatherDisplay:10.37,2013-01-18 01:02:00,
2013-01-17 17:07:00,34.6,33.6,30.31,West,265,0.0,0.0,96,0.00,,OVC,0.01,WeatherDisplay:10.37,2013-01-18 01:07:00,
2013-01-17 17:12:00,34.7,33.9,30.31,West,265,0.0,0.0,97,0.00,,OVC,0.01,WeatherDisplay:10.37,2013-01-18 01:12:00,
2013-01-17 17:17:00,34.6,33.8,30.31,West,265,0.0,0.0,97,0.00,,OVC,0.01,WeatherDisplay:10.37,2013-01-18 01:17:00,
2013-01-17 17:22:00,34.5,33.7,30.31,West,265,0.0,0.0,97,0.00,,OVC,0.01,WeatherDisplay:10.37,2013-01-18 01:22:00,
2013-01-17 17:27:00,34.4,33.6,30.31,West,265,0.0,0.0,97,0.00,,OVC,0.01,WeatherDisplay:10.37,2013-01-18 01:27:00,
2013-01-17 17:32:00,34.4,33.6,30.31,West,265,0.0,0.0,97,0.00,,OVC,0.01,WeatherDisplay:10.37,2013-01-18 01:32:00,
2013-01-17 17:37:00,34.2,33.5,30.31,West,265,0.0,0.0,97,0.00,,OVC,0.01,WeatherDisplay:10.37,2013-01-18 01:37:00,
2013-01-17 17:42:00,34.0,33.2,30.31,West,265,0.0,0.0,97,0.00,,OVC,0.01,WeatherDisplay:10.37,2013-01-18 01:42:00,
2013-01-17 17:47:00,33.7,32.9,30.31,West,265,0.0,0.0,97,0.00,,OVC,0.01,WeatherDisplay:10.37,2013-01-18 01:47:00,
2013-01-17 17:52:00,33.4,32.4,30.31,West,265,0.0,0.0,96,0.00,,OVC,0.01,WeatherDisplay:10.37,2013-01-18 01:52:00,
2013-01-17 17:57:00,33.2,32.2,30.31,West,265,0.0,0.0,96,0.00,,OVC,0.01,WeatherDisplay:10.37,2013-01-18 01:57:00,
2013-01-17 18:02:00,32.9,31.9,30.31,West,265,0.0,0.0,96,0.00,,OVC,0.01,WeatherDisplay:10.37,2013-01-18 02:02:00,
2013-01-17 18:07:00,32.7,31.7,30.31,West,265,0.0,0.0,96,0.00,,OVC,0.01,WeatherDisplay:10.37,2013-01-18 02:07:00,
2013-01-17 18:12:00,32.5,31.7,30.31,West,265,0.0,0.0,97,0.00,,OVC,0.01,WeatherDisplay:10.37,2013-01-18 02:12:00,
2013-01-17 18:17:00,32.3,31.3,30.31,West,265,0.0,0.0,96,0.00,,OVC,0.01,WeatherDisplay:10.37,2013-01-18 02:17:00,
2013-01-17 18:22:00,32.1,31.3,30.30,West,265,0.0,0.0,97,0.00,,OVC,0.01,WeatherDisplay:10.37,2013-01-18 02:22:00,
2013-01-17 18:27:00,32.1,31.3,30.30,WSW,255,0.0,0.0,97,0.00,,OVC,0.01,WeatherDisplay:10.37,2013-01-18 02:27:00,
2013-01-17 18:32:00,32.2,31.4,30.30,SW,219,0.0,0.0,97,0.00,,OVC,0.01,WeatherDisplay:10.37,2013-01-18 02:32:00,
2013-01-17 18:37:00,32.1,31.3,30.30,SSW,196,0.0,0.0,97,0.00,,OVC,0.01,WeatherDisplay:10.37,2013-01-18 02:37:00,
2013-01-17 18:42:00,32.3,31.5,30.30,SSW,194,0.0,0.0,97,0.00,,OVC,0.01,WeatherDisplay:10.37,2013-01-18 02:42:00,
2013-01-17 18:47:00,32.3,31.5,30.30,SSW,194,0.0,0.0,97,0.00,,OVC,0.01,WeatherDisplay:10.37,2013-01-18 02:47:00,
2013-01-17 18:52:00,32.3,31.5,30.30,SSW,194,0.0,0.0,97,0.00,,OVC,0.01,WeatherDisplay:10.37,2013-01-18 02:52:00,
2013-01-17 18:57:00,32.2,31.4,30.30,SSW,194,0.0,0.0,97,0.00,,OVC,0.01,WeatherDisplay:10.37,2013-01-18 02:57:00,
2013-01-17 19:02:00,32.1,31.6,30.30,SSW,194,0.0,0.0,98,0.00,,OVC,0.01,WeatherDisplay:10.37,2013-01-18 03:02:00,
2013-01-17 19:07:00,32.0,31.5,30.30,South,189,0.0,0.0,98,0.00,,OVC,0.01,WeatherDisplay:10.37,2013-01-18 03:07:00,
2013-01-17 19:12:00,32.0,31.5,30.30,South,185,0.0,0.0,98,0.00,,OVC,0.01,WeatherDisplay:10.37,2013-01-18 03:12:00,
2013-01-17 19:17:00,32.0,31.5,30.30,South,176,0.0,0.0,98,0.00,,OVC,0.01,WeatherDisplay:10.37,2013-01-18 03:17:00,
2013-01-17 19:22:00,32.1,31.6,30.30,ESE,110,1.0,0.0,98,0.00,,OVC,0.01,WeatherDisplay:10.37,2013-01-18 03:22:00,
2013-01-17 19:27:00,32.1,31.6,30.30,East,80,0.0,0.0,98,0.00,,OVC,0.01,WeatherDisplay:10.37,2013-01-18 03:27:00,
2013-01-17 19:32:00,32.1,31.6,30.30,ENE,78,0.0,0.0,98,0.00,,OVC,0.01,WeatherDisplay:10.37,2013-01-18 03:32:00,
2013-01-17 19:37:00,32.2,31.7,30.30,ENE,78,0.0,0.0,98,0.00,,OVC,0.01,WeatherDisplay:10.37,2013-01-18 03:37:00,
2013-01-17 19:42:00,32.1,31.6,30.30,ENE,78,0.0,0.0,98,0.00,,OVC,0.01,WeatherDisplay:10.37,2013-01-18 03:42:00,
2013-01-17 19:47:00,32.3,31.8,30.30,ENE,78,0.0,0.0,98,0.00,,OVC,0.01,WeatherDisplay:10.37,2013-01-18 03:47:00,
2013-01-17 19:52:00,32.3,31.8,30.30,East,79,1.0,0.0,98,0.00,,OVC,0.01,WeatherDisplay:10.37,2013-01-18 03:52:00,
2013-01-17 19:57:00,32.4,31.9,30.30,East,89,0.0,0.0,98,0.00,,OVC,0.01,WeatherDisplay:10.37,2013-01-18 03:57:00,
2013-01-17 20:02:00,32.8,32.3,30.30,East,99,0.0,0.0,98,0.00,,OVC,0.01,WeatherDisplay:10.37,2013-01-18 04:02:00,
2013-01-17 20:07:00,32.9,32.4,30.30,ESE,105,0.0,0.0,98,0.00,,OVC,0.01,WeatherDisplay:10.37,2013-01-18 04:07:00,
2013-01-17 20:12:00,33.0,32.5,30.30,East,95,1.0,0.0,98,0.00,,OVC,0.01,WeatherDisplay:10.37,2013-01-18 04:12:00,
2013-01-17 20:17:00,33.0,32.5,30.30,East,89,1.0,0.0,98,0.00,,OVC,0.01,WeatherDisplay:10.37,2013-01-18 04:17:00,
2013-01-17 20:22:00,32.9,32.4,30.30,East,86,1.0,0.0,98,0.00,,OVC,0.01,WeatherDisplay:10.37,2013-01-18 04:22:00,
2013-01-17 20:27:00,32.8,32.3,30.30,East,86,1.0,0.0,98,0.00,,OVC,0.01,WeatherDisplay:10.37,2013-01-18 04:27:00,
2013-01-17 20:32:00,32.7,32.2,30.29,East,86,2.0,0.0,98,0.00,,OVC,0.01,WeatherDisplay:10.37,2013-01-18 04:32:00,
2013-01-17 20:37:00,32.6,32.1,30.29,East,86,0.0,0.0,98,0.00,,OVC,0.01,WeatherDisplay:10.37,2013-01-18 04:37:00,
2013-01-17 20:42:00,32.4,31.9,30.29,East,86,0.0,0.0,98,0.00,,OVC,0.01,WeatherDisplay:10.37,2013-01-18 04:42:00,
2013-01-17 20:47:00,32.4,31.9,30.29,East,89,0.0,0.0,98,0.00,,OVC,0.01,WeatherDisplay:10.37,2013-01-18 04:47:00,
2013-01-17 20:52:00,32.5,32.0,30.29,East,92,0.0,0.0,98,0.00,,OVC,0.01,WeatherDisplay:10.37,2013-01-18 04:52:00,
2013-01-17 20:57:00,32.7,32.2,30.29,East,101,1.0,0.0,98,0.00,,OVC,0.01,WeatherDisplay:10.37,2013-01-18 04:57:00,
2013-01-17 21:02:00,32.9,32.4,30.30,ESE,122,0.0,0.0,98,0.00,,OVC,0.01,WeatherDisplay:10.37,2013-01-18 05:02:00,
2013-01-17 21:07:00,32.9,32.4,30.30,SE,132,0.0,0.0,98,0.00,,OVC,0.01,WeatherDisplay:10.37,2013-01-18 05:07:00,
2013-01-17 21:12:00,32.8,32.3,30.30,SE,132,0.0,0.0,98,0.00,,OVC,0.01,WeatherDisplay:10.37,2013-01-18 05:12:00,
2013-01-17 21:17:00,32.7,32.4,30.30,SE,132,0.0,0.0,99,0.00,,OVC,0.01,WeatherDisplay:10.37,2013-01-18 05:17:00,
2013-01-17 21:22:00,32.6,32.3,30.29,SE,132,0.0,0.0,99,0.00,,OVC,0.01,WeatherDisplay:10.37,2013-01-18 05:22:00,
2013-01-17 21:27:00,32.5,32.3,30.29,SE,132,0.0,0.0,99,0.00,,OVC,0.01,WeatherDisplay:10.37,2013-01-18 05:27:00,
2013-01-17 21:32:00,32.4,31.9,30.29,SE,132,0.0,0.0,98,0.00,,OVC,0.01,WeatherDisplay:10.37,2013-01-18 05:32:00,
2013-01-17 21:37:00,32.4,31.9,30.29,SE,131,0.0,0.0,98,0.00,,OVC,0.01,WeatherDisplay:10.37,2013-01-18 05:37:00,
2013-01-17 21:42:00,32.4,31.9,30.29,SE,127,0.0,0.0,98,0.00,,OVC,0.01,WeatherDisplay:10.37,2013-01-18 05:42:00,
2013-01-17 21:47:00,32.3,31.8,30.29,SE,125,0.0,0.0,98,0.00,,OVC,0.01,WeatherDisplay:10.37,2013-01-18 05:47:00,
2013-01-17 21:52:00,32.4,31.9,30.29,SE,128,0.0,0.0,98,0.00,,OVC,0.01,WeatherDisplay:10.37,2013-01-18 05:52:00,
2013-01-17 21:57:00,32.6,32.4,30.28,SE,137,0.0,0.0,99,0.00,,OVC,0.01,WeatherDisplay:10.37,2013-01-18 05:57:00,
2013-01-17 22:02:00,32.8,32.5,30.29,SE,138,0.0,0.0,99,0.00,,OVC,0.01,WeatherDisplay:10.37,2013-01-18 06:02:00,
2013-01-17 22:07:00,32.8,32.6,30.29,SE,138,0.0,0.0,99,0.00,,OVC,0.01,WeatherDisplay:10.37,2013-01-18 06:07:00,
2013-01-17 22:12:00,32.8,32.5,30.29,SE,138,0.0,0.0,99,0.00,,OVC,0.01,WeatherDisplay:10.37,2013-01-18 06:12:00,
2013-01-17 22:17:00,32.7,32.4,30.28,SE,138,0.0,0.0,99,0.00,,OVC,0.01,WeatherDisplay:10.37,2013-01-18 06:17:00,
2013-01-17 22:22:00,32.6,32.4,30.28,SE,138,0.0,0.0,99,0.00,,OVC,0.01,WeatherDisplay:10.37,2013-01-18 06:22:00,
2013-01-17 22:27:00,32.5,32.3,30.28,SE,144,0.0,0.0,99,0.00,,OVC,0.01,WeatherDisplay:10.37,2013-01-18 06:27:00,
2013-01-17 22:32:00,32.6,32.4,30.28,SSE,150,0.0,0.0,99,0.00,,OVC,0.01,WeatherDisplay:10.37,2013-01-18 06:32:00,
2013-01-17 22:42:00,32.9,32.6,30.28,SSE,150,0.0,0.0,99,0.00,,OVC,0.01,WeatherDisplay:10.37,2013-01-18 06:42:00,
2013-01-17 22:52:00,32.9,32.7,30.28,SSE,150,1.0,0.0,99,0.00,,OVC,0.01,WeatherDisplay:10.37,2013-01-18 06:52:00,
2013-01-17 22:57:00,32.8,32.6,30.27,SE,145,0.0,0.0,99,0.00,,OVC,0.01,WeatherDisplay:10.37,2013-01-18 06:57:00,
2013-01-17 23:02:00,32.8,32.6,30.27,SSE,147,0.0,0.0,99,0.00,,OVC,0.01,WeatherDisplay:10.37,2013-01-18 07:02:00,
2013-01-17 23:07:00,32.8,32.6,30.27,SSE,159,0.0,0.0,99,0.00,,OVC,0.01,WeatherDisplay:10.37,2013-01-18 07:07:00,
2013-01-17 23:12:00,32.7,32.5,30.27,SSE,153,0.0,0.0,99,0.00,,OVC,0.01,WeatherDisplay:10.37,2013-01-18 07:12:00,
2013-01-17 23:17:00,32.6,32.4,30.27,SSE,151,0.0,0.0,99,0.00,,OVC,0.01,WeatherDisplay:10.37,2013-01-18 07:17:00,
2013-01-17 23:22:00,32.5,32.3,30.27,SSE,151,0.0,0.0,99,0.00,,OVC,0.01,WeatherDisplay:10.37,2013-01-18 07:22:00,
2013-01-17 23:27:00,32.3,31.8,30.27,SSE,151,0.0,0.0,98,0.00,,OVC,0.01,WeatherDisplay:10.37,2013-01-18 07:27:00,
2013-01-17 23:32:00,32.1,31.9,30.27,SSE,151,0.0,0.0,99,0.00,,OVC,0.01,WeatherDisplay:10.37,2013-01-18 07:32:00,
2013-01-17 23:37:00,31.9,31.4,30.27,SSE,148,1.0,0.0,98,0.00,,OVC,0.01,WeatherDisplay:10.37,2013-01-18 07:37:00,
2013-01-17 23:42:00,31.7,31.2,30.27,SE,140,0.0,0.0,98,0.00,,OVC,0.01,WeatherDisplay:10.37,2013-01-18 07:42:00,
2013-01-17 23:47:00,31.6,31.1,30.27,SE,136,0.0,0.0,98,0.00,,OVC,0.01,WeatherDisplay:10.37,2013-01-18 07:47:00,
2013-01-17 23:52:00,31.5,31.0,30.27,SE,136,0.0,0.0,98,0.00,,OVC,0.01,WeatherDisplay:10.37,2013-01-18 07:52:00,
2013-01-17 23:57:00,31.4,30.9,30.27,SE,135,0.0,0.0,98,0.00,,OVC,0.01,WeatherDisplay:10.37,2013-01-18 07:57:00,